Regional Weather Roundup
Issued by NWS Sioux Falls, SD

Home | Current Version | Previous Version | Graphics & Text | Print | Product List | Glossary On
Versions: 1 2 3 4 5 6 7 8 9 10 11 12 13 14 15 16 17 18 19 20 21 22 23 24 25 26 27 28 29 30 31 32 33 34 35 36 37 38 39 40 41 42 43 44 45 46 47 48 49 50
000
ASUS43 KFSD 030410
RWRFSD

WEATHER ROUNDUP FOR SE SOUTH DAKOTA/SW MINNESOTA/NW IOWA
NATIONAL WEATHER SERVICE SIOUX FALLS SD
1100 PM CDT THU JUL 02 2015

NOTE: "FAIR" INDICATES FEW OR NO CLOUDS BELOW 12,000 FEET WITH NO
SIGNIFICANT WEATHER AND OR OBSTRUCTIONS TO VISIBILITY.


SDZ038>040-050-052>070-030500-
SOUTHEAST SOUTH DAKOTA

CITY           SKY/WX    TMP DP  RH WIND       PRES   REMARKS
BROOKINGS      CLEAR     61  54  77 S6        30.02S
CHAMBERLAIN    CLEAR     63  63  99 SE3       30.00R
HURON          CLEAR     62  59  90 S3        29.99R
MADISON        FAIR      59  54  82 W3        30.02R
MITCHELL       CLEAR     63  58  83 S7        30.00S
SIOUX FALLS    CLEAR     60  57  89 CALM      30.01R
WINNER         FAIR      66  60  81 SE6       30.01R
YANKTON        CLEAR     63  59  88 NE5       29.99R
$$

MNZ071-072-080-081-089-090-097-098-030500-
SOUTHWEST MINNESOTA

CITY           SKY/WX    TMP DP  RH WIND       PRES   REMARKS
FAIRMONT       PTCLDY    61  48  63 SW5       29.99F
JACKSON        PTCLDY    61  55  82 S5        30.01F
LUVERNE        CLEAR     59  54  82 CALM      30.01S
MARSHALL       CLEAR     59  50  72 SW7       29.98S
MONTEVIDEO     CLEAR     61  48  63 CALM      29.99S
PIPESTONE      CLEAR     59  54  82 CALM      30.01S
REDWOOD FALLS  CLEAR     62  54  74 S3        29.98S
TRACY          CLEAR     60  52  76 S6        30.00S
WINDOM         CLEAR     59  54  82 CALM      30.01S
WORTHINGTON    CLEAR     61  52  72 S5        30.01S
$$

IAZ001>003-012>014-020>022-031-032-NEZ013-014-SDZ071-030500-
NORTHWEST IOWA

CITY           SKY/WX    TMP DP  RH WIND       PRES   REMARKS
CHEROKEE       MOCLDY    62  59  91 CALM      30.00S
DENISON        CLOUDY    59  57  94 CALM      29.98R
ESTHERVILLE    PTCLDY    55  52  89 SW3       30.00S
LE MARS        MOCLDY    64  57  77 CALM      30.01S
ORANGE CITY    PTCLDY    61  57  88 CALM      30.01R
SHELDON        CLOUDY    55  55 100 E3        30.00S
SIOUX CITY     MOCLDY    65  58  78 E5        29.99S
SPENCER        PTCLDY    56  51  84 CALM      30.01S
STORM LAKE     CLOUDY    61  57  88 SE3       30.01S
$$

ABBREVIATIONS USED IN REMARKS
   TC - TEMPERATURE IN CELSIUS
  WCI - WIND CHILL INDEX
   HX - HEAT INDEX
  VSB - VISIBILITY




USA.gov is the U.S. government's official web portal to all federal, state and local government web resources and services.